Weather History for Key West, FL

Change the Weather History Date:

Friday, November 23, 2012

  Actual Average Record
Temperature  
Mean Temperature 67 °F 75 °F  
Max Temperature 71 °F 79 °F 86 °F (1948)
Min Temperature 63 °F 71 °F 58 °F (1944)
Degree Days  
Heating Degree Days 0 0  
Month to date heating degree days 0 0  
Since 1 July heating degree days 0 0  
Cooling Degree Days 2 10  
Month to date cooling degree days 176 260  
Year to date cooling degree days 4512 4468  
Growing Degree Days 17 (Base 50)    
Moisture  
Dew Point 56 °F    
Average Humidity 65    
Maximum Humidity 78    
Minimum Humidity 52    
Precipitation  
Precipitation 0.00 in 0.06 in 0.78 in (1881)
Month to date precipitation 0.10 1.76  
Year to date precipitation 46.30 37.07  
Snow  
Snow 0.00 in - - ()
Month to date snowfall 0.0  
Since 1 July snowfall 0.0  
Since 1 September snowfall 0.0  
Snow Depth 0.00 in    
Sea Level Pressure  
Sea Level Pressure 30.12 in    
Wind  
Wind Speed 11 mph (North)    
Max Wind Speed 16 mph    
Max Gust Speed 23 mph    
Visibility 10 miles    
Events      
T = Trace of Precipitation, MM = Missing Value Source: NWS Daily Summary

Daily Weather History Graph

Daily Weather History Graph

Search for Another Location

Airport:

Trip Planner

Search our weather history database for the weather conditions in past years. The results will help you decide how hot, cold, wet, or windy it might be!

Date:

Astronomy

Nov. 23, 2012 Rise Set
Actual Time 6:48 AM EST 5:38 PM EST
Civil Twilight 6:24 AM EST 6:02 PM EST
Nautical Twilight 5:56 AM EST 6:30 PM EST
Astronomical Twilight 5:29 AM EST 6:57 PM EST
Moon 2:30 PM EST (11/23) 2:31 AM EST (11/23)
Length of Visible Light 11h 37m
Length of Day
10h 49m
Waxing Gibbous, 79% of the Moon is Illuminated
Nov 23
Waxing Gibbous
Nov 28
Full
Dec 6
Last Quarter
Dec 13
New
Dec 20
First Quarter

Hourly Weather History & Observations

Time (EST) Temp. Dew Point Humidity Pressure Visibility Wind Dir Wind Speed Gust Speed Precip Events Conditions
12:53 AM 64.9 °F 48.9 °F 56% 30.12 in 10.0 mi NNE 11.5 mph 23.0 mph N/A   Clear
1:53 AM 64.9 °F 46.9 °F 52% 30.12 in 10.0 mi North 13.8 mph 20.7 mph N/A   Clear
2:53 AM 64.0 °F 46.0 °F 52% 30.11 in 10.0 mi NNE 11.5 mph 18.4 mph N/A   Clear
3:53 AM 64.0 °F 51.1 °F 63% 30.11 in 10.0 mi NNE 10.4 mph - N/A   Clear
4:53 AM 63.0 °F 53.1 °F 70% 30.11 in 10.0 mi NNE 11.5 mph - N/A   Clear
5:53 AM 63.0 °F 55.0 °F 75% 30.12 in 10.0 mi NNE 12.7 mph - N/A   Clear
6:53 AM 63.0 °F 55.9 °F 78% 30.14 in 10.0 mi NNE 8.1 mph 17.3 mph N/A   Clear
7:53 AM 64.9 °F 57.0 °F 75% 30.15 in 10.0 mi NNE 11.5 mph - N/A   Clear
8:53 AM 66.9 °F 57.9 °F 73% 30.17 in 10.0 mi North 10.4 mph - N/A   Clear
9:53 AM 68.0 °F 57.9 °F 70% 30.18 in 10.0 mi North 12.7 mph 21.9 mph N/A   Clear
10:53 AM 69.1 °F 57.9 °F 68% 30.17 in 10.0 mi North 11.5 mph - N/A   Clear
11:53 AM 69.1 °F 57.9 °F 68% 30.15 in 10.0 mi North 12.7 mph - N/A   Clear
12:53 PM 70.0 °F 57.9 °F 65% 30.12 in 10.0 mi North 13.8 mph - N/A   Clear
1:53 PM 71.1 °F 59.0 °F 66% 30.10 in 10.0 mi North 12.7 mph - N/A   Clear
2:53 PM 71.1 °F 59.0 °F 66% 30.09 in 10.0 mi North 11.5 mph - N/A   Clear
3:53 PM 70.0 °F 57.9 °F 65% 30.09 in 10.0 mi North 11.5 mph - N/A   Clear
4:53 PM 70.0 °F 59.0 °F 68% 30.09 in 10.0 mi North 11.5 mph - N/A   Clear
5:53 PM 68.0 °F 57.9 °F 70% 30.09 in 10.0 mi North 11.5 mph - N/A   Clear
6:53 PM 68.0 °F 57.9 °F 70% 30.10 in 10.0 mi North 9.2 mph - N/A   Clear
7:53 PM 68.0 °F 57.9 °F 70% 30.12 in 10.0 mi North 10.4 mph - N/A   Clear
8:53 PM 68.0 °F 57.9 °F 70% 30.13 in 10.0 mi North 8.1 mph - N/A   Clear
9:53 PM 68.0 °F 57.0 °F 68% 30.13 in 10.0 mi North 6.9 mph - N/A   Clear
10:53 PM 68.0 °F 57.9 °F 70% 30.13 in 10.0 mi North 9.2 mph - N/A   Clear
11:53 PM 68.0 °F 54.0 °F 61% 30.11 in 10.0 mi North 11.5 mph - N/A   Clear